Location: Home
(42.5358°N, 72.7383°W)
Time: 14:32:57
(UTC-05:00)

deb Explorer IX - Pass Details

Date: 02 December 2021
Orbit: 544 x 1082 km, 38.8° (Epoch: 16 January)

Event Time Altitude Azimuth Distance (km) Brightness Sun altitude
Rises 09:08:46 0° 202° (SSW) 3,078 ? 16.6°
Reaches altitude 10° 09:12:45 10° 172° (S) 2,035 ? 17.0°
Maximum altitude 09:14:31 12° 149° (SSE) 1,855 ? 17.2°
Drops below altitude 10° 09:16:13 10° 127° (SE) 1,942 ? 17.4°
Sets 09:19:46 0° 95° (E) 2,766 ? 17.7°
